Home > Weather > Appleton > Past weeks

Flag for USA Past Weather in Appleton, Wisconsin, USA — Yesterday and Last 2 Weeks

Now
81 °F

Light rain. Cloudy.


Feels Like: 83 °F
Forecast: 69 / 91 °F
Wind: 5 mph from North

Location: Appleton / Outagamie

Current Time: Jul 23, 2016 at 6:08:57 PM

Latest Report: Jul 23, 2016 at 4:45 PM


Visibility: 10 mi

Pressure: 29.94 "Hg

Humidity: 62%

Dew Point: 66 °F

Location of AppletonLocation

Past Weather in Appleton — Graph

°F

Appleton Temperature Yesterday

Maximum temperature yesterday: 90 °F (at 3:45 PM)
Minimum temperature yesterday: 66 °F (at 4:35 AM)
Average temperature yesterday: 75 °F

High & Low Weather Summary for the Past Weeks

 TemperatureHumidityPressure
High90 °F (Jul 22, 3:45 PM)100% (Jul 8, 8:00 PM)30.26 "Hg (Jul 8, 8:00 PM)
Low52 °F (Jul 16, 4:15 AM)38% (Jul 22, 5:45 PM)29.67 "Hg (Jul 13, 5:45 PM)
Average70 °F73%29.97 "Hg
* Reported Jul 8 4:45 PM — Jul 23 4:45 PM, Appleton, Weather by CustomWeather, © 2016

Note: Actual official high and low records may vary slightly from our data, if they occured in-between our weather recording intervals... More about our weather records

Advertising

Appleton Weather History for the Previous 24 Hours

Scroll right to see more
 ConditionsComfort  
Time TempWeatherWind HumidityBarometerVisibility
4:45 PM
Sat, Jul 23
81 °FLight rain. Cloudy.5 mph62%29.94 "Hg10 mi
3:45 PM82 °FMore clouds than sun.3 mph58%29.96 "Hg10 mi
2:45 PM84 °FMore clouds than sun.6 mph55%29.97 "Hg10 mi
1:45 PM84 °FMore clouds than sun.5 mph51%29.99 "Hg10 mi
12:45 PM84 °FBroken clouds.3 mph45%29.99 "Hg10 mi
11:45 AM84 °FBroken clouds.8 mph43%29.99 "Hg10 mi
10:45 AM84 °FScattered clouds.9 mph45%29.97 "Hg10 mi
9:45 AM84 °FScattered clouds.7 mph40%29.96 "Hg10 mi
8:45 AM81 °FScattered clouds.6 mph45%29.99 "Hg10 mi
7:45 AM77 °FScattered clouds.6 mph57%29.99 "Hg10 mi
6:45 AM72 °FScattered clouds.6 mph73%29.98 "Hg10 mi
5:45 AM68 °FPassing clouds.7 mph94%29.99 "Hg10 mi
5:15 AM68 °FClear.7 mph83%29.98 "Hg10 mi
4:55 AM70 °FClear.No wind78%29.98 "Hg10 mi
4:35 AM70 °FClear.5 mph78%29.97 "Hg10 mi
4:15 AM70 °FClear.No wind78%29.97 "Hg10 mi
3:55 AM72 °FClear.No wind73%29.97 "Hg10 mi
3:35 AM70 °FClear.No wind78%29.97 "Hg10 mi
3:15 AM72 °FClear.No wind73%29.98 "Hg10 mi
2:55 AM72 °FClear.No wind73%29.98 "Hg10 mi
2:15 AM70 °FClear.8 mph83%29.97 "Hg10 mi
1:55 AM72 °FClear.9 mph73%29.97 "Hg10 mi
1:35 AM70 °FClear.9 mph78%29.97 "Hg10 mi
1:15 AM72 °FClear.8 mph73%29.97 "Hg10 mi
12:55 AM72 °FClear.9 mph73%29.98 "Hg10 mi
12:35 AM73 °FClear.9 mph69%29.98 "Hg10 mi
12:15 AM73 °FClear.8 mph69%29.97 "Hg10 mi
11:55 PM
Fri, Jul 22
73 °FClear.8 mph69%29.98 "Hg10 mi
11:35 PM73 °FClear.8 mph69%29.97 "Hg10 mi
11:15 PM73 °FClear.8 mph69%29.97 "Hg10 mi
10:45 PM75 °FPassing clouds.7 mph65%29.96 "Hg10 mi
9:45 PM79 °FPassing clouds.6 mph61%29.96 "Hg10 mi
8:45 PM81 °FScattered clouds.3 mph58%29.95 "Hg10 mi
7:45 PM82 °FSunny.3 mph58%29.95 "Hg10 mi
Weather by CustomWeather, © 2016

See weather overviewHow to use our weather pages